Wind_Speed
30 30 29 29 30 29 27 29 30 32 31 31 32 32 34 37 38 41 43 44 46 47 48 49 48 42 44 45 49 51 54 54 54 51 51 48 48 48 47 48 51 48 42
36 33 33 32 33 34 32 33 34 36 35 34 36 36 37 41 43 45 48 51 52 54 57 58 58 49 51 50 55 57 58 60 60 59 55 53 53 52 51 51 54 50 48
39 35 36 36 36 37 38 37 38 40 40 38 38 39 39 43 48 51 52 55 58 58 61 64 60 57 58 60 61 60 62 63 63 65 62 58 57 57 55 54 51 49 52
42 40 40 41 40 41 42 43 44 44 44 44 43 44 43 46 50 53 56 58 61 63 67 70 65 58 63 65 67 65 65 66 67 64 65 65 60 53 53 54 56 56 56
47 47 45 46 46 47 46 47 49 50 49 49 50 49 47 49 52 55 59 61 65 67 71 71 58 61 66 67 69 70 68 71 74 69 70 65 60 56 59 63 57 55 53
51 53 51 50 51 53 51 50 53 55 55 53 55 56 55 54 56 59 62 65 68 73 76 56 60 65 68 70 70 72 73 74 72 74 69 61 59 66 72 68 67 60 58
59 58 59 58 58 58 57 56 57 58 58 59 60 61 61 60 61 64 66 69 70 70 58 55 62 66 67 69 71 75 74 73 74 74 69 67 70 76 72 77 72 66 64
65 64 65 63 64 64 62 62 62 62 62 62 64 64 64 65 66 69 71 73 75 70 53 61 67 63 67 72 77 74 74 75 73 75 73 73 75 80 85 88 84 80 75
72 72 68 68 68 68 69 70 68 65 65 65 65 67 67 68 70 73 76 78 75 69 69 57 67 67 73 76 76 74 76 79 78 75 78 81 86 90 97 94 86 82 79
80 79 76 75 73 72 73 73 74 73 71 69 69 70 71 70 74 77 78 77 75 75 65 62 71 75 74 74 75 78 77 82 80 82 85 86 91 98 100 100 92 83 74
86 85 83 80 79 78 79 77 78 81 80 79 76 76 75 76 78 77 76 70 68 63 61 65 75 72 74 76 81 81 83 80 81 87 86 91 99 105 112 106 87 78 71
85 88 87 85 85 84 83 82 83 83 84 83 81 79 79 78 80 78 79 59 53 56 65 73 75 77 76 79 85 88 85 81 83 84 90 98 106 112 114 98 81 74 66
66 65 70 79 82 85 88 89 89 89 89 87 85 83 82 81 80 79 59 56 53 61 73 76 74 75 78 84 90 86 80 83 83 89 96 104 110 113 112 95 79 68 59
55 54 54 37 35 43 47 53 58 57 56 59 71 71 74 71 65 54 60 65 67 76 73 68 71 80 80 87 92 87 84 85 89 97 101 108 109 116 100 85 72 61 56
53 39 21 23 36 43 43 49 49 40 37 40 42 46 51 61 63 60 63 53 59 64 73 75 77 79 82 92 91 88 86 89 92 101 105 110 109 116 94 80 69 58 56
45 35 22 25 32 42 45 25 23 20 21 24 23 38 49 49 52 60 61 67 75 76 81 84 84 88 84 90 93 84 87 89 94 101 102 103 108 106 87 77 65 58 56
45 39 49 45 37 44 42 35 32 31 31 17 18 35 52 61 65 76 80 85 85 88 87 92 92 93 82 92 92 85 86 87 96 97 101 103 107 95 83 73 63 58 55
35 49 55 40 33 39 47 33 23 35 51 37 56 57 69 75 83 93 93 98 100 97 90 94 91 89 98 95 86 82 86 91 101 99 101 105 97 87 79 70 63 58 53
23 20 30 27 24 59 50 40 44 54 61 65 67 75 76 82 80 90 104 103 108 98 96 99 100 99 91 86 80 82 89 97 97 97 100 104 97 85 78 68 61 56 51
18 39 46 30 51 98 89 53 50 58 64 76 77 88 91 89 91 92 98 102 102 104 109 101 107 106 89 80 81 86 94 98 93 95 102 101 95 83 77 66 59 53 49
42 45 55 56 78 84 72 65 66 65 68 73 81 92 95 95 100 106 107 106 105 107 103 102 98 85 74 75 82 85 89 85 89 100 101 104 96 80 73 64 57 52 50
58 61 64 66 78 76 76 70 70 75 79 76 74 83 91 104 115 111 100 95 103 102 98 89 79 69 73 81 82 92 97 92 94 98 103 102 91 75 70 62 56 52 49
63 59 75 80 84 86 87 87 80 77 74 75 78 78 80 88 94 97 92 91 93 94 87 79 77 74 79 86 89 92 89 95 96 100 92 87 89 74 69 59 55 51 48
70 74 78 76 74 78 81 82 82 82 82 84 86 74 80 81 84 84 85 87 89 85 83 75 73 77 81 89 91 92 95 95 98 95 91 90 89 74 69 56 52 50 46
84 83 84 85 82 82 82 79 77 73 73 84 74 75 76 80 82 85 87 86 82 79 78 75 78 82 87 90 93 94 95 94 95 88 91 90 87 75 67 55 49 48 45
89 86 84 83 85 87 86 85 92 95 89 87 81 89 93 90 86 75 70 72 73 75 79 82 83 83 88 88 88 93 95 97 86 90 89 84 76 69 64 53 46 44 43
Wind_Direction
260 264 268 270 273 282 289 290 294 298 306 310 312 316 321 324 324 324 325 326 328 330 330 333 334 335 336 333 333 337 336 336 333 331 326 320 316 311 306 306 308 301 293
259 263 266 268 270 277 283 287 290 292 298 303 306 312 317 318 320 322 324 323 325 327 330 331 332 330 334 334 334 336 334 331 330 330 325 319 317 315 311 303 304 295 292
260 261 266 268 270 278 279 281 284 287 293 297 302 306 310 315 318 320 321 322 324 325 326 327 327 327 331 333 334 333 331 330 327 328 324 319 316 316 311 306 303 297 294
260 261 265 268 271 273 277 279 283 286 289 295 300 303 309 312 313 315 317 319 321 324 324 325 323 327 332 331 331 330 328 328 327 320 320 320 321 323 321 312 305 302 294
262 264 266 270 271 274 276 281 285 287 291 295 298 301 304 306 308 311 314 317 320 320 322 322 321 325 327 326 327 327 327 328 326 321 320 322 323 319 324 328 314 302 295
257 262 264 267 271 273 275 278 281 284 287 293 295 299 301 304 307 311 313 316 318 319 317 314 317 320 324 323 324 324 325 326 322 320 325 325 321 324 330 326 327 308 296
255 259 263 264 265 267 271 274 277 281 287 290 294 297 299 304 307 309 312 312 314 318 315 313 314 317 318 320 320 322 323 324 323 325 326 325 321 326 326 329 328 318 304
258 259 260 261 266 268 269 273 276 279 283 287 291 294 299 302 304 307 308 309 312 312 303 301 308 313 316 317 319 321 322 324 323 324 326 324 325 325 329 329 324 321 313
255 255 258 262 264 269 273 274 276 277 280 284 287 291 295 299 303 304 304 307 310 307 300 299 307 312 316 315 319 320 321 323 323 325 327 326 326 326 326 328 324 320 314
256 258 258 261 263 266 268 272 276 279 280 282 284 289 295 299 301 301 304 305 303 303 289 291 307 312 315 316 315 318 319 320 323 326 327 325 324 326 330 329 324 321 316
258 261 263 265 268 270 273 276 278 281 284 286 289 292 295 299 298 300 301 301 305 303 290 298 307 312 314 315 316 317 319 322 324 326 322 324 326 326 329 329 324 321 317
258 260 263 266 269 271 272 274 276 276 278 281 283 286 290 294 294 297 302 299 300 292 292 296 309 309 312 315 315 316 320 323 325 324 324 325 326 327 330 327 324 321 317
260 262 263 265 267 269 272 273 273 274 275 276 280 284 287 290 292 297 290 279 275 280 289 303 305 307 311 312 315 318 320 323 324 323 323 325 327 329 328 326 323 319 316
262 261 260 275 276 274 271 274 282 285 283 282 279 281 286 293 295 290 291 274 269 281 295 301 304 307 309 312 317 318 318 322 322 322 322 323 327 329 327 324 322 320 320
252 249 231 285 305 292 287 289 290 286 287 285 287 298 302 302 293 288 287 275 280 290 297 304 306 309 312 317 315 313 316 317 319 320 323 324 325 325 325 324 323 324 323
243 214 244 269 295 308 315 324 319 316 294 299 314 299 276 289 264 262 265 263 272 285 296 302 304 309 315 314 314 313 314 317 317 320 324 326 326 326 324 325 325 326 325
223 227 244 255 290 300 309 292 295 312 298 275 264 224 247 259 263 258 261 261 269 282 296 299 300 306 311 310 310 311 315 320 320 321 326 327 326 326 326 328 328 327 324
239 240 256 269 278 296 286 288 286 292 276 271 250 257 245 254 259 258 260 264 269 279 291 295 299 306 306 308 311 311 315 314 320 322 323 328 329 327 329 329 328 326 326
266 287 230 207 261 260 258 257 248 248 250 247 256 251 256 256 257 257 257 266 269 280 288 291 296 299 303 305 309 311 310 313 320 321 324 329 329 330 330 329 326 325 328
254 249 226 200 217 227 240 247 252 249 250 249 245 248 251 256 260 260 264 267 270 276 278 284 288 296 301 307 309 309 310 313 317 323 325 329 329 328 330 327 323 324 328
219 216 207 214 224 228 239 241 254 254 254 252 254 257 260 262 264 264 265 270 275 277 281 285 291 297 304 308 308 311 316 317 318 321 323 327 328 329 328 325 322 325 328
215 214 213 215 217 227 236 246 253 256 259 263 264 266 269 266 264 265 269 269 271 276 279 285 293 298 301 302 304 307 311 317 319 322 322 325 328 328 328 324 324 325 327
231 230 227 229 234 242 246 251 255 257 259 264 274 283 275 268 267 266 267 270 273 276 281 287 289 293 299 300 302 308 313 314 317 320 324 325 329 328 328 323 321 322 325
229 244 245 242 245 249 253 257 257 260 264 270 278 274 273 272 270 273 274 277 276 279 283 285 288 292 295 300 302 307 311 315 317 319 319 324 328 327 327 321 317 319 323
240 242 250 256 256 256 262 267 269 275 274 275 273 274 271 274 274 272 271 278 279 281 283 288 289 292 296 299 303 307 311 314 316 318 320 323 325 325 324 319 315 316 320
247 250 255 259 261 264 271 270 269 274 268 273 270 274 280 272 267 270 275 276 280 283 285 289 292 295 297 299 303 309 311 313 314 316 319 320 322 322 322 318 311 312 315
Height
10947 10948 10950 10951 10951 10951 10951 10949 10947 10946 10947 10946 10944 10943 10940 10937 10934 10930 10926 10924 10920 10916 10912 10908 10902 10898 10890 10884 10879 10873 10867 10861 10855 10851 10843 10837 10829 10821 10815 10808 10802 10799 10800
10942 10941 10943 10944 10945 10946 10945 10943 10941 10940 10941 10940 10938 10936 10934 10930 10926 10922 10917 10913 10911 10905 10899 10895 10890 10886 10881 10874 10868 10861 10854 10847 10841 10837 10831 10823 10816 10810 10804 10796 10790 10785 10781
10933 10935 10936 10937 10938 10939 10938 10936 10934 10932 10932 10932 10931 10929 10927 10923 10917 10912 10910 10905 10898 10894 10888 10882 10878 10874 10867 10861 10856 10850 10844 10836 10827 10821 10814 10809 10803 10797 10789 10782 10775 10770 10765
10925 10927 10928 10930 10931 10931 10930 10928 10927 10924 10923 10923 10922 10921 10919 10916 10912 10907 10902 10897 10891 10885 10878 10869 10864 10860 10854 10847 10843 10839 10833 10827 10819 10810 10802 10795 10788 10783 10777 10771 10761 10754 10746
10917 10916 10918 10920 10921 10921 10921 10920 10920 10916 10915 10915 10914 10913 10912 10909 10905 10900 10894 10889 10882 10877 10870 10861 10851 10847 10843 10837 10830 10825 10820 10813 10806 10799 10790 10780 10773 10768 10762 10753 10744 10736 10727
10907 10906 10908 10909 10909 10908 10909 10910 10909 10907 10905 10905 10903 10902 10900 10898 10895 10891 10885 10879 10874 10868 10861 10854 10846 10839 10834 10828 10820 10813 10807 10800 10795 10785 10775 10768 10761 10754 10743 10734 10726 10717 10709
10894 10895 10895 10897 10897 10896 10897 10899 10898 10896 10896 10892 10890 10889 10887 10887 10884 10880 10875 10869 10864 10859 10853 10845 10838 10831 10825 10816 10809 10801 10792 10785 10778 10769 10761 10755 10744 10737 10728 10716 10703 10695 10685
10880 10880 10882 10884 10880 10881 10885 10885 10886 10886 10886 10884 10881 10879 10878 10874 10872 10867 10862 10856 10851 10848 10841 10836 10827 10821 10813 10804 10795 10785 10778 10770 10764 10754 10743 10735 10727 10717 10706 10694 10681 10670 10659
10860 10863 10868 10869 10870 10871 10871 10869 10871 10874 10874 10872 10871 10868 10866 10862 10859 10853 10847 10842 10837 10831 10828 10822 10816 10809 10802 10792 10782 10773 10764 10755 10746 10737 10728 10719 10707 10695 10685 10670 10654 10643 10632
10845 10846 10850 10854 10856 10859 10859 10859 10858 10858 10860 10861 10859 10857 10854 10850 10845 10839 10834 10828 10822 10816 10810 10806 10800 10793 10785 10776 10769 10761 10750 10741 10732 10721 10710 10700 10689 10676 10662 10645 10630 10616 10603
10827 10829 10832 10838 10842 10844 10844 10847 10845 10842 10842 10842 10842 10841 10839 10837 10832 10826 10817 10810 10806 10800 10795 10791 10786 10778 10770 10765 10756 10748 10737 10725 10717 10707 10696 10685 10670 10654 10639 10620 10603 10591 10581
10813 10816 10820 10823 10821 10823 10826 10827 10826 10826 10823 10821 10823 10822 10822 10819 10815 10810 10805 10795 10791 10789 10783 10778 10770 10763 10757 10752 10745 10736 10726 10715 10704 10693 10681 10668 10652 10635 10617 10601 10585 10572 10561
10800 10805 10806 10808 10809 10809 10808 10807 10807 10808 10807 10808 10807 10808 10805 10802 10800 10796 10792 10784 10778 10773 10770 10765 10759 10752 10746 10741 10734 10724 10714 10702 10691 10679 10665 10651 10635 10614 10599 10584 10570 10557 10545
10786 10788 10790 10797 10796 10793 10789 10785 10782 10784 10785 10793 10791 10792 10790 10788 10786 10784 10778 10773 10768 10764 10759 10753 10745 10738 10733 10729 10720 10712 10701 10689 10678 10665 10650 10634 10617 10602 10585 10569 10555 10542 10530
10765 10772 10779 10783 10783 10778 10777 10775 10769 10766 10766 10773 10777 10785 10785 10777 10765 10768 10763 10761 10757 10753 10746 10735 10729 10723 10719 10714 10708 10699 10688 10676 10665 10652 10636 10619 10602 10587 10572 10557 10541 10528 10517
10754 10759 10764 10769 10763 10764 10763 10764 10758 10759 10759 10769 10773 10778 10789 10783 10775 10759 10746 10748 10741 10736 10729 10723 10714 10710 10705 10701 10697 10687 10676 10666 10654 10640 10624 10606 10590 10573 10555 10541 10528 10515 10505
10742 10747 10749 10749 10748 10749 10757 10758 10758 10757 10758 10768 10778 10772 10776 10780 10764 10746 10735 10733 10727 10720 10713 10707 10703 10702 10695 10692 10685 10675 10665 10655 10643 10625 10612 10593 10576 10557 10541 10526 10514 10504 10495
10723 10724 10724 10727 10726 10731 10751 10745 10749 10724 10754 10749 10752 10763 10757 10747 10741 10736 10732 10725 10715 10709 10698 10696 10693 10689 10687 10681 10673 10662 10652 10643 10631 10614 10599 10582 10563 10544 10529 10516 10505 10495 10486
10693 10691 10703 10696 10693 10710 10738 10739 10738 10740 10740 10738 10742 10741 10735 10731 10728 10728 10724 10715 10701 10694 10688 10687 10684 10680 10675 10669 10661 10650 10641 10630 10616 10599 10586 10568 10551 10534 10520 10509 10498 10489 10479
10688 10701 10694 10687 10720 10726 10723 10715 10722 10725 10726 10726 10725 10723 10722 10717 10712 10709 10703 10696 10692 10687 10679 10674 10671 10674 10662 10657 10650 10638 10630 10616 10603 10588 10574 10559 10545 10527 10514 10503 10493 10482 10473
10680 10683 10686 10693 10702 10702 10702 10699 10700 10702 10704 10708 10707 10705 10702 10697 10693 10689 10682 10679 10676 10673 10669 10664 10664 10657 10651 10644 10638 10627 10616 10604 10590 10577 10563 10550 10536 10519 10506 10496 10485 10474 10465
10664 10671 10671 10673 10681 10685 10685 10685 10686 10686 10689 10690 10689 10686 10683 10678 10675 10669 10665 10660 10659 10659 10657 10653 10647 10644 10638 10632 10623 10613 10602 10590 10576 10564 10552 10539 10525 10509 10497 10486 10475 10466 10459
10648 10653 10658 10661 10662 10663 10664 10665 10666 10668 10670 10671 10668 10665 10663 10658 10655 10652 10651 10649 10648 10645 10638 10634 10632 10630 10625 10616 10607 10596 10585 10575 10565 10552 10539 10527 10514 10498 10488 10477 10468 10461 10453
10636 10637 10640 10644 10647 10645 10645 10645 10645 10648 10649 10647 10648 10642 10638 10641 10639 10639 10635 10632 10628 10626 10623 10621 10617 10614 10609 10599 10587 10580 10571 10559 10548 10537 10526 10515 10504 10491 10480 10471 10462 10455 10448
10616 10622 10622 10620 10622 10626 10626 10623 10623 10621 10619 10624 10625 10621 10622 10623 10619 10619 10618 10616 10615 10611 10607 10603 10600 10595 10589 10581 10570 10561 10553 10542 10532 10523 10512 10501 10493 10482 10472 10464 10457 10449 10443
10599 10599 10602 10602 10604 10606 10605 10604 10603 10604 10608 10608 10605 10604 10607 10605 10601 10599 10597 10596 10596 10593 10587 10583 10577 10573 10567 10560 10552 10542 10534 10527 10518 10509 10498 10489 10481 10473 10464 10457 10450 10444 10438